User: anonymous   Login
Location: Unspecified
(0.0000°N, 0.0000°E)
Time: 00:16:39
(UTC+00:00)
Language:

STARLINK-35841 - Orbit

View from above orbital plane
View from above orbital plane
View from above satellite
View from above satellite

Ground track
Ground track

The orbit is defined by the following mean orbital elements,

1 67086U          26145.38871891 +.00000000 +00000-0 +31737-3 0 00007
2 67086  70.0010 181.1661 0003747 265.7800  94.2931 14.98333724    02
Epoch (UTC): 25 May 2026 09:19:45
Eccentricity: 0.0003747
inclination: 70.0010°
perigee height: 569 km
apogee height: 575 km
right ascension of ascending node: 181.1661°
argument of perigee: 265.7800°
revolutions per day: 14.98333724
mean anomaly at epoch: 94.2931°

The dashed part of the orbit path shows where the satellite is in the earth's shadow,  

DLR